Terminal Aerodrome Forecast
Issued by NWS

Current Version | Previous Version | Graphics & Text | Print | Product List | Glossary On
Versions: 1 2 3 4 5 6 7 8 9 10 11 12 13 14 15 16
000
FTUS41 KPBZ 211100
TAFHLG
TAF
KHLG 211120Z 2112/2212 17006KT P6SM SCT250
     FM220300 VRB05KT P6SM OVC120
     FM221000 24010KT 6SM -RA BKN050=

USA.gov is the U.S. government's official web portal to all federal, state and local government web resources and services.